| time (UTC) | temp F | wind direction | speed MPH | gust MPH | rain 1hr in | rain 24hr in | rain mn in | humidity % | barometer mb |
| 20260504193022 | 63 | 199 | 13.0 | 16.0 | 0.00 | 0.00 | 0.00 | 63 | 1014.1 |
| 20260504192520 | 63 | 210 | 13.0 | 17.0 | 0.00 | 0.00 | 0.00 | 62 | 1014.1 |
| 20260504192018 | 64 | 177 | 13.0 | 17.0 | 0.00 | 0.00 | 0.00 | 60 | 1014.1 |
| 20260504191515 | 64 | 230 | 8.0 | 13.0 | 0.00 | 0.00 | 0.00 | 59 | 1014.1 |
| 20260504191011 | 64 | 222 | 7.0 | 11.0 | 0.00 | 0.00 | 0.00 | 59 | 1014.3 |
| 20260504190507 | 63 | 218 | 10.0 | 14.0 | 0.00 | 0.00 | 0.00 | 59 | 1014.3 |
| 20260504190004 | 64 | 223 | 10.0 | 14.0 | 0.00 | 0.00 | 0.00 | 59 | 1014.2 |
| 20260504185501 | 64 | 264 | 10.0 | 15.0 | 0.00 | 0.00 | 0.00 | 58 | 1014.2 |
| 20260504184957 | 64 | 218 | 8.0 | 10.0 | 0.00 | 0.00 | 0.00 | 59 | 1014.3 |
| 20260504184453 | 64 | 247 | 7.0 | 9.0 | 0.00 | 0.00 | 0.00 | 58 | 1014.3 |
| 20260504183948 | 64 | 211 | 9.0 | 11.0 | 0.00 | 0.00 | 0.00 | 59 | 1014.5 |
| 20260504183446 | 64 | 222 | 6.0 | 9.0 | 0.00 | 0.00 | 0.00 | 59 | 1014.4 |
| 20260504182944 | 64 | 201 | 9.0 | 11.0 | 0.00 | 0.00 | 0.00 | 59 | 1014.5 |
| 20260504182440 | 65 | 217 | 11.0 | 14.0 | 0.00 | 0.00 | 0.00 | 57 | 1014.5 |
| 20260504181938 | 65 | 230 | 9.0 | 11.0 | 0.00 | 0.00 | 0.00 | 57 | 1014.4 |
| 20260504181435 | 65 | 209 | 8.0 | 11.0 | 0.00 | 0.00 | 0.00 | 56 | 1014.6 |
| 20260504180933 | 63 | 224 | 14.0 | 18.0 | 0.00 | 0.00 | 0.00 | 56 | 1014.6 |
| 20260504180432 | 64 | 226 | 9.0 | 11.0 | 0.00 | 0.00 | 0.00 | 57 | 1014.8 |
| 20260504175930 | 65 | 180 | 7.0 | 8.0 | 0.00 | 0.00 | 0.00 | 56 | 1014.7 |
| 20260504175426 | 64 | 239 | 8.0 | 10.0 | 0.00 | 0.00 | 0.00 | 57 | 1014.6 |
| 20260504174924 | 64 | 226 | 11.0 | 13.0 | 0.00 | 0.00 | 0.00 | 59 | 1014.7 |
| 20260504174422 | 64 | 187 | 10.0 | 10.0 | 0.00 | 0.00 | 0.00 | 58 | 1014.6 |
| 20260504173919 | 64 | 219 | 6.0 | 6.0 | 0.00 | 0.00 | 0.00 | 59 | 1014.8 |
| 20260504173415 | 64 | 205 | 7.0 | 9.0 | 0.00 | 0.00 | 0.00 | 59 | 1014.8 |
| 20260504172913 | 64 | 218 | 9.0 | 11.0 | 0.00 | 0.00 | 0.00 | 59 | 1014.7 |
| 20260504172409 | 63 | 234 | 12.0 | 14.0 | 0.00 | 0.00 | 0.00 | 57 | 1014.7 |
| 20260504171905 | 64 | 215 | 10.0 | 11.0 | 0.00 | 0.00 | 0.00 | 58 | 1014.8 |
| 20260504171403 | 66 | 272 | 2.0 | 3.0 | 0.00 | 0.00 | 0.00 | 56 | 1015.1 |
| 20260504170859 | 64 | 184 | 4.0 | 9.0 | 0.00 | 0.00 | 0.00 | 59 | 1015.0 |
| 20260504170356 | 63 | 219 | 4.0 | 6.0 | 0.00 | 0.00 | 0.00 | 60 | 1015.4 |
| 20260504160315 | 63 | 222 | 8.0 | 9.0 | 0.00 | 0.00 | 0.00 | 51 | 1016.1 |
| 20260504150739 | 63 | 262 | 9.0 | 11.0 | 0.00 | 0.00 | 0.00 | 48 | 1016.5 |
| 20260504150236 | 64 | 233 | 7.0 | 10.0 | 0.00 | 0.00 | 0.00 | 47 | 1016.4 |
| 20260504141205 | 62 | 208 | 3.0 | 6.0 | 0.00 | 0.00 | 0.00 | 50 | 1016.7 |
| 20260504140702 | 62 | 285 | 2.0 | 4.0 | 0.00 | 0.00 | 0.00 | 50 | 1016.5 |
| 20260504140158 | 62 | 239 | 6.0 | 7.0 | 0.00 | 0.00 | 0.00 | 49 | 1016.5 |
| 20260504130626 | 60 | 182 | 3.0 | 3.0 | 0.00 | 0.00 | 0.00 | 54 | 1017.2 |
| 20260504130123 | 59 | 195 | 7.0 | 9.0 | 0.00 | 0.00 | 0.00 | 54 | 1017.3 |
| 20260504110514 | 52 | 125 | 0.0 | 0.0 | 0.00 | 0.00 | 0.00 | 66 | 1017.4 |
| 20260504100430 | 50 | 251 | 4.0 | 4.0 | 0.00 | 0.00 | 0.00 | 66 | 1017.1 |
| 20260504081823 | 49 | 251 | 0.0 | 0.0 | 0.00 | 0.00 | 0.00 | 61 | 1016.5 |
| 20260504081320 | 49 | 128 | 0.0 | 0.0 | 0.00 | 0.00 | 0.00 | 61 | 1016.5 |
| 20260504080816 | 49 | 116 | 0.0 | 0.0 | 0.00 | 0.00 | 0.00 | 61 | 1016.7 |
| 20260504080313 | 49 | 101 | 0.0 | 0.0 | 0.00 | 0.00 | 0.00 | 61 | 1016.6 |
| 20260504070240 | 50 | 119 | 0.0 | 0.0 | 0.00 | 0.00 | 0.00 | 60 | 1016.2 |
| 20260504060201 | 51 | 176 | 0.0 | 1.0 | 0.00 | 0.00 | 0.00 | 63 | 1016.0 |
| 20260504050629 | 50 | 173 | 0.0 | 0.0 | 0.00 | 0.00 | 0.00 | 60 | 1015.7 |
| 20260504050126 | 50 | 181 | 0.0 | 0.0 | 0.00 | 0.00 | 0.00 | 59 | 1015.9 |
| 20260504045623 | 50 | 180 | 0.0 | 0.0 | 0.00 | 0.00 | 0.00 | 60 | 1015.8 |
| 20260504045118 | 51 | 134 | 0.0 | 0.0 | 0.00 | 0.00 | 0.00 | 59 | 1015.8 |
| 20260504044616 | 51 | 150 | 0.0 | 0.0 | 0.00 | 0.00 | 0.00 | 59 | 1015.8 |
| 20260504044112 | 51 | 137 | 0.0 | 0.0 | 0.00 | 0.00 | 0.00 | 59 | 1015.6 |
| 20260504043610 | 51 | 136 | 0.0 | 0.0 | 0.00 | 0.00 | 0.00 | 59 | 1015.7 |
| 20260504043107 | 51 | 144 | 1.0 | 1.0 | 0.00 | 0.00 | 0.00 | 59 | 1016.0 |
| 20260504042604 | 51 | 239 | 0.0 | 1.0 | 0.00 | 0.00 | 0.00 | 59 | 1015.7 |
| 20260504042101 | 51 | 192 | 0.0 | 0.0 | 0.00 | 0.00 | 0.00 | 59 | 1015.7 |
| 20260504041556 | 51 | 130 | 0.0 | 0.0 | 0.00 | 0.00 | 0.00 | 59 | 1015.7 |
| 20260504041053 | 50 | 277 | 0.0 | 1.0 | 0.00 | 0.00 | 0.00 | 59 | 1015.6 |
| 20260504040550 | 50 | 266 | 0.0 | 0.0 | 0.00 | 0.00 | 0.00 | 60 | 1015.7 |
| 20260504040047 | 50 | 189 | 0.0 | 0.0 | 0.00 | 0.00 | 0.00 | 60 | 1015.5 |
| 20260504035544 | 50 | 189 | 0.0 | 0.0 | 0.00 | 0.00 | 0.00 | 60 | 1015.7 |
| 20260504035040 | 51 | 97 | 0.0 | 0.0 | 0.00 | 0.00 | 0.00 | 60 | 1015.4 |
| 20260504034538 | 51 | 135 | 0.0 | 0.0 | 0.00 | 0.00 | 0.00 | 58 | 1015.5 |
| 20260504034035 | 51 | 126 | 0.0 | 0.0 | 0.00 | 0.00 | 0.00 | 58 | 1015.5 |
| 20260504033533 | 52 | 257 | 0.0 | 0.0 | 0.00 | 0.00 | 0.00 | 57 | 1015.4 |
| 20260504033030 | 52 | 197 | 0.0 | 0.0 | 0.00 | 0.00 | 0.00 | 57 | 1015.4 |
| 20260504032527 | 52 | 259 | 0.0 | 1.0 | 0.00 | 0.00 | 0.00 | 57 | 1015.5 |
| 20260504032024 | 52 | 186 | 0.0 | 0.0 | 0.00 | 0.00 | 0.00 | 57 | 1015.4 |
| 20260504031521 | 52 | 183 | 0.0 | 0.0 | 0.00 | 0.00 | 0.00 | 56 | 1015.5 |
| 20260504031017 | 51 | 155 | 0.0 | 0.0 | 0.00 | 0.00 | 0.00 | 56 | 1015.6 |
| 20260504030514 | 51 | 152 | 0.0 | 1.0 | 0.00 | 0.00 | 0.00 | 57 | 1015.2 |
| 20260504030010 | 51 | 197 | 0.0 | 0.0 | 0.00 | 0.00 | 0.00 | 57 | 1015.4 |
| 20260504025507 | 51 | 166 | 0.0 | 0.0 | 0.00 | 0.00 | 0.00 | 57 | 1015.3 |
| 20260504025004 | 51 | 292 | 0.0 | 0.0 | 0.00 | 0.00 | 0.00 | 57 | 1015.5 |
| 20260504024501 | 50 | 114 | 0.0 | 0.0 | 0.00 | 0.00 | 0.00 | 55 | 1015.3 |
| 20260504023958 | 50 | 98 | 0.0 | 0.0 | 0.00 | 0.00 | 0.00 | 55 | 1015.4 |
| 20260504023455 | 50 | 99 | 0.0 | 0.0 | 0.00 | 0.00 | 0.00 | 54 | 1015.6 |
| 20260504022950 | 50 | 82 | 0.0 | 0.0 | 0.00 | 0.00 | 0.00 | 52 | 1015.4 |
| 20260504022446 | 50 | 80 | 0.0 | 0.0 | 0.00 | 0.00 | 0.00 | 53 | 1015.3 |
| 20260504021943 | 50 | 109 | 0.0 | 0.0 | 0.00 | 0.00 | 0.00 | 53 | 1015.6 |
| 20260504021441 | 50 | 84 | 0.0 | 0.0 | 0.00 | 0.00 | 0.00 | 52 | 1015.4 |
| 20260504020938 | 50 | 111 | 0.0 | 0.0 | 0.00 | 0.00 | 0.00 | 53 | 1015.3 |
| 20260504020434 | 50 | 86 | 0.0 | 0.0 | 0.00 | 0.00 | 0.00 | 49 | 1015.5 |
| 20260504015931 | 50 | 87 | 0.0 | 0.0 | 0.00 | 0.00 | 0.00 | 51 | 1015.5 |
| 20260504015427 | 50 | 98 | 0.0 | 0.0 | 0.00 | 0.00 | 0.00 | 52 | 1015.4 |
| 20260504014923 | 50 | 86 | 0.0 | 0.0 | 0.00 | 0.00 | 0.00 | 53 | 1015.3 |
| 20260504014419 | 50 | 78 | 0.0 | 0.0 | 0.00 | 0.00 | 0.00 | 51 | 1015.3 |
| 20260504013916 | 51 | 91 | 0.0 | 0.0 | 0.00 | 0.00 | 0.00 | 48 | 1015.2 |
| 20260504013415 | 51 | 182 | 0.0 | 0.0 | 0.00 | 0.00 | 0.00 | 49 | 1015.2 |
| 20260504012910 | 51 | 80 | 0.0 | 0.0 | 0.00 | 0.00 | 0.00 | 50 | 1015.1 |
| 20260504012409 | 51 | 91 | 0.0 | 0.0 | 0.00 | 0.00 | 0.00 | 48 | 1015.3 |
| 20260504011905 | 51 | 84 | 0.0 | 0.0 | 0.00 | 0.00 | 0.00 | 48 | 1015.0 |
| 20260504011403 | 52 | 77 | 0.0 | 0.0 | 0.00 | 0.00 | 0.00 | 45 | 1015.1 |
| 20260504010858 | 53 | 77 | 0.0 | 0.0 | 0.00 | 0.00 | 0.00 | 44 | 1014.6 |
| 20260504010354 | 53 | 84 | 0.0 | 0.0 | 0.00 | 0.00 | 0.00 | 42 | 1014.9 |
| 20260504005851 | 54 | 76 | 0.0 | 0.0 | 0.00 | 0.00 | 0.00 | 41 | 1014.9 |
| 20260504005348 | 55 | 77 | 0.0 | 0.0 | 0.00 | 0.00 | 0.00 | 39 | 1014.6 |
| 20260504004845 | 55 | 66 | 0.0 | 0.0 | 0.00 | 0.00 | 0.00 | 38 | 1014.7 |
| 20260504004343 | 55 | 79 | 0.0 | 0.0 | 0.00 | 0.00 | 0.00 | 38 | 1014.6 |
| 20260504003839 | 55 | 332 | 0.0 | 0.0 | 0.00 | 0.00 | 0.00 | 38 | 1014.5 |
| 20260504003336 | 55 | 49 | 0.0 | 0.0 | 0.00 | 0.00 | 0.00 | 37 | 1014.4 |
| 20260504002833 | 55 | 36 | 0.0 | 0.0 | 0.00 | 0.00 | 0.00 | 37 | 1014.5 |
| 20260504002329 | 56 | 57 | 0.0 | 0.0 | 0.00 | 0.00 | 0.00 | 36 | 1014.2 |
| 20260504001827 | 56 | 65 | 0.0 | 0.0 | 0.00 | 0.00 | 0.00 | 36 | 1014.3 |
| 20260504001324 | 56 | 58 | 0.0 | 0.0 | 0.00 | 0.00 | 0.00 | 35 | 1014.0 |
| 20260504000821 | 57 | 63 | 0.0 | 0.0 | 0.00 | 0.00 | 0.00 | 34 | 1014.0 |
| 20260504000318 | 57 | 51 | 0.0 | 0.0 | 0.00 | 0.00 | 0.00 | 34 | 1013.9 |
| 20260503235816 | 57 | 73 | 0.0 | 1.0 | 0.00 | 0.00 | 0.00 | 33 | 1014.1 |
| 20260503235313 | 57 | 8 | 0.0 | 0.0 | 0.00 | 0.00 | 0.00 | 33 | 1013.9 |
| 20260503234810 | 57 | 42 | 0.0 | 0.0 | 0.00 | 0.00 | 0.00 | 33 | 1014.0 |
| 20260503234308 | 57 | 40 | 0.0 | 0.0 | 0.00 | 0.00 | 0.00 | 33 | 1013.9 |
| 20260503233806 | 58 | 11 | 2.0 | 3.0 | 0.00 | 0.00 | 0.00 | 32 | 1013.8 |
| 20260503233301 | 58 | 357 | 2.0 | 2.0 | 0.00 | 0.00 | 0.00 | 32 | 1014.0 |
| 20260503232758 | 58 | 321 | 2.0 | 3.0 | 0.00 | 0.00 | 0.00 | 31 | 1013.4 |
| 20260503232256 | 58 | 277 | 2.0 | 3.0 | 0.00 | 0.00 | 0.00 | 31 | 1013.6 |
| 20260503231754 | 58 | 359 | 1.0 | 2.0 | 0.00 | 0.00 | 0.00 | 31 | 1013.5 |
| 20260503231250 | 59 | 32 | 2.0 | 3.0 | 0.00 | 0.00 | 0.00 | 31 | 1013.6 |
| 20260503230746 | 59 | 7 | 4.0 | 4.0 | 0.00 | 0.00 | 0.00 | 30 | 1013.5 |
| 20260503230243 | 59 | 178 | 1.0 | 1.0 | 0.00 | 0.00 | 0.00 | 30 | 1013.6 |
| 20260503225741 | 59 | 332 | 1.0 | 2.0 | 0.00 | 0.00 | 0.00 | 30 | 1013.4 |
| 20260503225241 | 59 | 273 | 5.0 | 7.0 | 0.00 | 0.00 | 0.00 | 30 | 1013.5 |
| 20260503224738 | 59 | 307 | 5.0 | 7.0 | 0.00 | 0.00 | 0.00 | 30 | 1013.3 |
| 20260503224236 | 60 | 345 | 5.0 | 6.0 | 0.00 | 0.00 | 0.00 | 30 | 1013.4 |
| 20260503223733 | 59 | 50 | 0.0 | 1.0 | 0.00 | 0.00 | 0.00 | 30 | 1013.4 |
| 20260503223231 | 60 | 5 | 5.0 | 7.0 | 0.00 | 0.00 | 0.00 | 30 | 1013.4 |
| 20260503222727 | 60 | 313 | 4.0 | 6.0 | 0.00 | 0.00 | 0.00 | 29 | 1013.3 |
| 20260503222225 | 60 | 353 | 1.0 | 3.0 | 0.00 | 0.00 | 0.00 | 30 | 1013.5 |
| 20260503221723 | 60 | 348 | 6.0 | 8.0 | 0.00 | 0.00 | 0.00 | 30 | 1013.4 |
| 20260503221221 | 59 | 351 | 7.0 | 10.0 | 0.00 | 0.00 | 0.00 | 30 | 1013.2 |
| 20260503220717 | 60 | 337 | 6.0 | 9.0 | 0.00 | 0.00 | 0.00 | 29 | 1013.4 |
| 20260503220214 | 60 | 316 | 8.0 | 11.0 | 0.00 | 0.00 | 0.00 | 29 | 1013.4 |
| 20260503215710 | 60 | 332 | 11.0 | 14.0 | 0.00 | 0.00 | 0.00 | 29 | 1013.4 |
| 20260503215207 | 60 | 328 | 1.0 | 2.0 | 0.00 | 0.00 | 0.00 | 30 | 1013.4 |
| 20260503214706 | 60 | 5 | 9.0 | 10.0 | 0.00 | 0.00 | 0.00 | 30 | 1013.3 |
| 20260503214201 | 60 | 351 | 4.0 | 8.0 | 0.00 | 0.00 | 0.00 | 30 | 1013.3 |
| 20260503213655 | 59 | 281 | 6.0 | 9.0 | 0.00 | 0.00 | 0.00 | 30 | 1013.2 |
| 20260503213151 | 59 | 343 | 4.0 | 6.0 | 0.00 | 0.00 | 0.00 | 30 | 1013.3 |
| 20260503212649 | 60 | 358 | 1.0 | 2.0 | 0.00 | 0.00 | 0.00 | 30 | 1013.1 |
| 20260503212147 | 59 | 290 | 5.0 | 7.0 | 0.00 | 0.00 | 0.00 | 31 | 1013.3 |
| 20260503211644 | 59 | 339 | 9.0 | 15.0 | 0.00 | 0.00 | 0.00 | 30 | 1013.1 |
| 20260503211139 | 61 | 319 | 6.0 | 13.0 | 0.00 | 0.00 | 0.00 | 31 | 1013.0 |
| 20260503210635 | 59 | 307 | 1.0 | 2.0 | 0.00 | 0.00 | 0.00 | 31 | 1013.1 |
| 20260503210132 | 60 | 323 | 4.0 | 8.0 | 0.00 | 0.00 | 0.00 | 31 | 1013.1 |
| 20260503205628 | 59 | 351 | 2.0 | 3.0 | 0.00 | 0.00 | 0.00 | 32 | 1013.1 |
| 20260503205125 | 59 | 349 | 7.0 | 10.0 | 0.00 | 0.00 | 0.00 | 32 | 1012.9 |
| 20260503204621 | 59 | 5 | 5.0 | 6.0 | 0.00 | 0.00 | 0.00 | 32 | 1013.2 |
| 20260503204119 | 60 | 4 | 3.0 | 4.0 | 0.00 | 0.00 | 0.00 | 32 | 1013.2 |
| 20260503203615 | 59 | 338 | 4.0 | 7.0 | 0.00 | 0.00 | 0.00 | 32 | 1013.0 |
| 20260503203113 | 58 | 6 | 5.0 | 8.0 | 0.00 | 0.00 | 0.00 | 33 | 1013.0 |
| 20260503202610 | 59 | 332 | 6.0 | 8.0 | 0.00 | 0.00 | 0.00 | 33 | 1013.2 |
| 20260503202108 | 59 | 352 | 8.0 | 9.0 | 0.00 | 0.00 | 0.00 | 33 | 1013.0 |
| 20260503201606 | 58 | 324 | 8.0 | 11.0 | 0.00 | 0.00 | 0.00 | 33 | 1013.3 |
| 20260503201103 | 58 | 339 | 8.0 | 10.0 | 0.00 | 0.00 | 0.00 | 33 | 1013.2 |
| 20260503200559 | 59 | 275 | 4.0 | 6.0 | 0.00 | 0.00 | 0.00 | 33 | 1013.2 |
| 20260503200056 | 59 | 310 | 3.0 | 6.0 | 0.00 | 0.00 | 0.00 | 34 | 1013.1 |
| 20260503195548 | 58 | 269 | 2.0 | 6.0 | 0.00 | 0.00 | 0.00 | 35 | 1013.2 |
| 20260503195044 | 57 | 34 | 2.0 | 2.0 | 0.00 | 0.00 | 0.00 | 36 | 1013.3 |
| 20260503194542 | 57 | 195 | 9.0 | 10.0 | 0.00 | 0.00 | 0.00 | 35 | 1013.2 |
| 20260503194041 | 57 | 336 | 7.0 | 8.0 | 0.00 | 0.00 | 0.00 | 35 | 1013.3 |
| 20260503193539 | 58 | 349 | 7.0 | 10.0 | 0.00 | 0.00 | 0.00 | 35 | 1013.4 |